Weather History for KYNG - December, 2011

Change the Weather History Date:

Sunday, December 4, 2011

  Actual Average Record
Temperature  
Mean Temperature 49 °F 34 °F  
Max Temperature 58 °F 40 °F 67 °F (1982)
Min Temperature 40 °F 28 °F 3 °F (1966)
Degree Days  
Heating Degree Days 16 31  
Month to date heating degree days 111 121  
Since 1 July heating degree days 1216 1450  
Cooling Degree Days 0 0  
Month to date cooling degree days 0 0  
Year to date cooling degree days 731 544  
Moisture  
Dew Point 35 °F    
Average Humidity 59    
Maximum Humidity 80    
Minimum Humidity 38    
Precipitation  
Precipitation T in 0.10 in - ()
Month to date precipitation T 0.40  
Year to date precipitation 49.59 36.32  
Snow  
Snow 0.00 in 0.40 in - ()
Month to date snowfall 0.0 1.6  
Since 1 July snowfall 2.4 6.0  
Snow Depth 0.00 in    
Sea Level Pressure  
Sea Level Pressure 30.24 in    
Wind  
Wind Speed 10 mph (South)    
Max Wind Speed 22 mph    
Max Gust Speed 31 mph    
Visibility 10 miles    
Events Rain    
T = Trace of Precipitation, MM = Missing Value Source: NWS Daily Summary

Daily Weather History Graph

Daily Weather History Graph

Search for Another Location

Airport or City:

Trip Planner

Search our weather history database for the weather conditions in past years. The results will help you decide how hot, cold, wet, or windy it might be!

Date:

Astronomy

Dec. 04, 2011 Rise Set
Actual Time 7:31 AM EST 4:53 PM EST
Civil Twilight 7:00 AM EST 5:24 PM EST
Nautical Twilight 6:26 AM EST 5:59 PM EST
Astronomical Twilight 5:53 AM EST 6:32 PM EST
Moon 1:26 PM EST (12/4) 1:52 AM EST (12/4)
Length of Visible Light 10h 23m
Length of Day
9h 22m
Waxing Gibbous, 71% of the Moon is Illuminated
Dec 4
Waxing Gibbous
Dec 10
Full
Dec 17
Last Quarter
Dec 24
New
Jan 1
First Quarter

Hourly Weather History & Observations

Time (EST) Temp. Windchill Dew Point Humidity Pressure Visibility Wind Dir Wind Speed Gust Speed Precip Events Conditions
12:51 AM 41.0 °F 35.8 °F 30.0 °F 65% 30.32 in 10.0 mi SSE 8.1 mph - N/A   Partly Cloudy
1:51 AM 43.0 °F 36.8 °F 30.0 °F 60% 30.29 in 10.0 mi SSE 11.5 mph - N/A   Partly Cloudy
2:51 AM 43.0 °F 37.2 °F 30.0 °F 60% 30.28 in 10.0 mi SSE 10.4 mph 19.6 mph N/A   Scattered Clouds
3:51 AM 42.1 °F 35.7 °F 30.0 °F 62% 30.26 in 10.0 mi SSE 11.5 mph - N/A   Scattered Clouds
4:51 AM 43.0 °F 36.8 °F 30.0 °F 60% 30.25 in 10.0 mi SSE 11.5 mph - N/A   Mostly Cloudy
5:51 AM 42.8 °F 36.6 °F 28.4 °F 57% 30.23 in 10.0 mi SSE 11.5 mph - N/A   Scattered Clouds
6:51 AM 43.0 °F 36.4 °F 28.0 °F 56% 30.25 in 10.0 mi SSE 12.7 mph 19.6 mph N/A   Mostly Cloudy
7:51 AM 44.1 °F 37.7 °F 27.0 °F 51% 30.25 in 10.0 mi South 12.7 mph - N/A   Mostly Cloudy
8:51 AM 46.0 °F 40.2 °F 27.0 °F 47% 30.25 in 10.0 mi SSE 12.7 mph - N/A   Mostly Cloudy
9:51 AM 50.0 °F - 26.1 °F 39% 30.27 in 10.0 mi SSW 11.5 mph 16.1 mph N/A   Mostly Cloudy
10:51 AM 53.1 °F - 28.0 °F 38% 30.25 in 10.0 mi SSW 11.5 mph 24.2 mph N/A   Mostly Cloudy
11:51 AM 57.0 °F - 32.0 °F 39% 30.21 in 10.0 mi SSW 19.6 mph 26.5 mph N/A   Mostly Cloudy
12:51 PM 55.9 °F - 34.0 °F 44% 30.18 in 10.0 mi SSW 15.0 mph 31.1 mph N/A   Mostly Cloudy
1:51 PM 57.9 °F - 37.0 °F 46% 30.18 in 10.0 mi SSW 11.5 mph 19.6 mph N/A   Overcast
2:51 PM 57.0 °F - 37.0 °F 47% 30.18 in 10.0 mi SSW 11.5 mph 20.7 mph N/A   Overcast
3:51 PM 55.9 °F - 37.9 °F 51% 30.20 in 10.0 mi SW 9.2 mph 18.4 mph N/A   Overcast
4:51 PM 55.0 °F - 37.0 °F 51% 30.21 in 10.0 mi SW 12.7 mph - N/A   Overcast
5:51 PM 54.0 °F - 37.0 °F 53% 30.22 in 10.0 mi SSW 5.8 mph - N/A   Overcast
6:51 PM 54.0 °F - 37.9 °F 55% 30.24 in 10.0 mi SW 13.8 mph 17.3 mph 0.00 in   Overcast
7:51 PM 52.0 °F - 41.0 °F 66% 30.26 in 10.0 mi SSW 10.4 mph - 0.00 in Rain Light Rain
8:09 PM 51.8 °F - 42.8 °F 71% 30.24 in 10.0 mi SSW 6.9 mph - 0.00 in Rain Light Rain
8:51 PM 51.1 °F - 44.1 °F 77% 30.23 in 10.0 mi SSW 6.9 mph - 0.00 in   Overcast
9:51 PM 50.0 °F - 45.0 °F 83% 30.23 in 10.0 mi SW 4.6 mph - N/A   Overcast
10:51 PM 50.0 °F - 44.1 °F 80% 30.22 in 10.0 mi Calm Calm - N/A   Overcast
11:51 PM 50.0 °F - 44.1 °F 80% 30.21 in 10.0 mi Calm Calm - N/A   Overcast